Time,TemperatureF,DewpointF,PressureIn,WindDirection,WindDirectionDegrees,WindSpeedMPH,WindSpeedGustMPH,Humidity,HourlyPrecipIn,Conditions,Clouds,dailyrainin,SoftwareType,DateUTC
2013-08-29 00:18:00,75.0,71.0,29.77,SW,233,0.0,0.0,86,0.00,,,0.01,,2013-08-29 04:18:00,
2013-08-29 00:28:00,75.0,71.0,29.78,SW,233,0.0,0.0,86,0.00,,,0.01,,2013-08-29 04:28:00,
2013-08-29 00:45:00,75.0,71.0,29.78,SW,233,0.0,0.0,86,0.00,,,0.01,,2013-08-29 04:45:00,
2013-08-29 00:54:00,75.0,71.0,29.78,SW,233,0.0,0.0,87,0.00,,,0.01,,2013-08-29 04:54:00,
2013-08-29 01:14:00,74.0,70.0,29.78,SW,233,0.0,0.0,87,0.00,,,0.01,,2013-08-29 05:14:00,
2013-08-29 01:23:00,75.0,71.0,29.78,SW,233,0.0,0.0,86,0.00,,,0.01,,2013-08-29 05:23:00,
2013-08-29 01:42:00,74.0,70.0,29.77,SW,233,0.0,0.0,86,0.00,,,0.01,,2013-08-29 05:42:00,
2013-08-29 01:52:00,74.0,70.0,29.78,SW,233,0.0,0.0,87,0.00,,,0.01,,2013-08-29 05:52:00,
2013-08-29 02:12:00,74.0,70.0,29.77,SW,233,0.0,0.0,87,0.00,,,0.01,,2013-08-29 06:12:00,
2013-08-29 02:22:00,74.0,70.0,29.77,SW,233,0.0,0.0,87,0.00,,,0.01,,2013-08-29 06:22:00,
2013-08-29 02:43:00,74.0,70.0,29.76,SW,233,0.0,0.0,86,0.00,,,0.01,,2013-08-29 06:43:00,
2013-08-29 02:52:00,75.0,70.0,29.76,SW,233,0.0,0.0,85,0.00,,,0.01,,2013-08-29 06:52:00,
2013-08-29 03:12:00,74.0,69.0,29.76,SW,233,0.0,0.0,85,0.00,,,0.01,,2013-08-29 07:12:00,
2013-08-29 03:22:00,74.0,69.0,29.76,SW,233,0.0,0.0,85,0.00,,,0.01,,2013-08-29 07:22:00,
2013-08-29 03:42:00,75.0,70.0,29.76,SW,233,0.0,0.0,85,0.00,,,0.01,,2013-08-29 07:42:00,
2013-08-29 03:53:00,74.0,69.0,29.76,SW,233,0.0,0.0,85,0.00,,,0.01,,2013-08-29 07:53:00,
2013-08-29 04:12:00,74.0,69.0,29.76,SW,233,0.0,1.0,85,0.00,,,0.01,,2013-08-29 08:12:00,
2013-08-29 04:22:00,74.0,69.0,29.76,SW,233,0.0,1.0,85,0.00,,,0.01,,2013-08-29 08:22:00,
2013-08-29 04:42:00,74.0,69.0,29.75,SW,233,0.0,2.0,84,0.00,,,0.01,,2013-08-29 08:42:00,
2013-08-29 04:52:00,74.0,69.0,29.75,SW,233,0.0,0.0,84,0.00,,,0.01,,2013-08-29 08:52:00,
2013-08-29 05:12:00,74.0,69.0,29.75,SW,233,0.0,2.0,84,0.00,,,0.01,,2013-08-29 09:12:00,
2013-08-29 05:22:00,74.0,69.0,29.76,SW,233,0.0,1.0,84,0.00,,,0.01,,2013-08-29 09:22:00,
2013-08-29 05:43:00,74.0,69.0,29.76,SW,233,0.0,1.0,84,0.00,,,0.01,,2013-08-29 09:43:00,
2013-08-29 05:55:00,74.0,69.0,29.76,SW,233,0.0,1.0,84,0.00,,,0.01,,2013-08-29 09:55:00,
2013-08-29 06:15:00,74.0,69.0,29.76,SW,233,0.0,1.0,84,0.00,,,0.01,,2013-08-29 10:15:00,
2013-08-29 06:24:00,74.0,69.0,29.77,SW,233,0.0,0.0,84,0.00,,,0.01,,2013-08-29 10:24:00,
2013-08-29 06:53:00,74.0,69.0,29.77,SW,233,0.0,2.0,84,0.00,,,0.01,,2013-08-29 10:53:00,
2013-08-29 07:12:00,74.0,69.0,29.78,SW,233,0.0,1.0,84,0.00,,,0.01,,2013-08-29 11:12:00,
2013-08-29 07:22:00,74.0,69.0,29.78,SW,233,0.0,1.0,84,0.00,,,0.01,,2013-08-29 11:22:00,
2013-08-29 07:42:00,74.0,69.0,29.79,SW,233,0.0,1.0,84,0.00,,,0.01,,2013-08-29 11:42:00,
2013-08-29 07:52:00,74.0,69.0,29.80,SW,233,0.0,0.0,84,0.00,,,0.01,,2013-08-29 11:52:00,
2013-08-29 08:12:00,74.0,69.0,29.80,SW,233,0.0,0.0,84,0.00,,,0.01,,2013-08-29 12:12:00,
2013-08-29 08:22:00,74.0,69.0,29.81,SW,233,0.0,0.0,85,0.00,,,0.01,,2013-08-29 12:22:00,
2013-08-29 08:42:00,74.0,69.0,29.82,SW,233,0.0,0.0,85,0.00,,,0.01,,2013-08-29 12:42:00,
2013-08-29 08:52:00,74.0,69.0,29.83,SW,233,0.0,1.0,85,0.00,,,0.01,,2013-08-29 12:52:00,
2013-08-29 09:12:00,74.0,69.0,29.83,SW,233,0.0,1.0,85,0.00,,,0.01,,2013-08-29 13:12:00,
2013-08-29 09:22:00,74.0,69.0,29.83,SW,233,0.0,2.0,85,0.00,,,0.01,,2013-08-29 13:22:00,
2013-08-29 09:42:00,75.0,70.0,29.83,SW,233,0.0,3.0,84,0.00,,,0.01,,2013-08-29 13:42:00,
2013-08-29 09:52:00,75.0,69.0,29.83,SW,233,0.0,2.0,83,0.00,,,0.01,,2013-08-29 13:52:00,
2013-08-29 10:11:00,76.0,70.0,29.83,SW,233,0.0,0.0,83,0.00,,,0.01,,2013-08-29 14:11:00,
2013-08-29 10:22:00,76.0,70.0,29.84,SW,234,0.0,0.0,82,0.00,,,0.01,,2013-08-29 14:22:00,
2013-08-29 10:42:00,77.0,71.0,29.84,SW,234,0.0,2.0,81,0.00,,,0.01,,2013-08-29 14:42:00,
2013-08-29 10:52:00,77.0,71.0,29.84,SW,234,0.0,2.0,81,0.00,,,0.01,,2013-08-29 14:52:00,
2013-08-29 11:02:00,77.0,71.0,29.84,SW,234,0.0,2.0,81,0.00,,,0.01,,2013-08-29 15:02:00,
2013-08-29 11:12:00,77.0,71.0,29.84,SW,234,0.0,2.0,81,0.00,,,0.01,,2013-08-29 15:12:00,
2013-08-29 11:22:00,77.0,70.0,29.85,SW,234,0.0,1.0,79,0.00,,,0.01,,2013-08-29 15:22:00,
2013-08-29 11:43:00,77.0,70.0,29.85,SW,227,0.0,2.0,80,0.00,,,0.01,,2013-08-29 15:43:00,
2013-08-29 11:53:00,77.0,70.0,29.85,SW,219,1.0,3.0,80,0.00,,,0.01,,2013-08-29 15:53:00,
2013-08-29 12:13:00,77.0,70.0,29.86,SSE,147,0.0,4.0,79,0.00,,,0.01,,2013-08-29 16:13:00,
2013-08-29 12:24:00,76.0,69.0,29.86,SSE,147,0.0,1.0,79,0.00,,,0.01,,2013-08-29 16:24:00,
2013-08-29 12:43:00,77.0,70.0,29.86,SSE,147,0.0,3.0,80,0.00,,,0.01,,2013-08-29 16:43:00,
2013-08-29 12:54:00,77.0,70.0,29.85,SSE,147,0.0,3.0,79,0.00,,,0.01,,2013-08-29 16:54:00,
2013-08-29 13:13:00,78.0,71.0,29.85,SSE,147,0.0,1.0,79,0.00,,,0.01,,2013-08-29 17:13:00,
2013-08-29 13:23:00,79.0,70.0,29.85,SW,223,0.0,3.0,74,0.00,,,0.01,,2013-08-29 17:23:00,
2013-08-29 13:44:00,79.0,70.0,29.85,West,259,0.0,3.0,75,0.00,,,0.01,,2013-08-29 17:44:00,
2013-08-29 13:53:00,80.0,70.0,29.85,South,169,0.0,5.0,72,0.00,,,0.01,,2013-08-29 17:53:00,
2013-08-29 14:12:00,79.0,71.0,29.85,South,169,0.0,1.0,76,0.00,,,0.01,,2013-08-29 18:12:00,
2013-08-29 14:22:00,82.0,71.0,29.85,WSW,247,0.0,3.0,70,0.00,,,0.00,,2013-08-29 18:22:00,
2013-08-29 14:42:00,81.0,72.0,29.85,SSW,204,0.0,3.0,73,0.00,,,0.00,,2013-08-29 18:42:00,
2013-08-29 14:52:00,82.0,72.0,29.84,West,261,0.0,4.0,71,0.00,,,0.00,,2013-08-29 18:52:00,
2013-08-29 15:11:00,82.0,71.0,29.84,WSW,251,0.0,2.0,69,0.00,,,0.00,,2013-08-29 19:11:00,
2013-08-29 15:22:00,81.0,69.0,29.84,SSE,148,0.0,4.0,68,0.00,,,0.00,,2013-08-29 19:22:00,
2013-08-29 15:42:00,82.0,71.0,29.84,SW,227,0.0,3.0,69,0.00,,,0.00,,2013-08-29 19:42:00,
2013-08-29 15:53:00,80.0,69.0,29.84,SE,133,0.0,3.0,70,0.00,,,0.00,,2013-08-29 19:53:00,
2013-08-29 16:13:00,81.0,70.0,29.84,SE,133,0.0,2.0,69,0.00,,,0.00,,2013-08-29 20:13:00,
2013-08-29 16:22:00,81.0,69.0,29.83,SSW,194,0.0,3.0,67,0.00,,,0.00,,2013-08-29 20:22:00,
2013-08-29 16:42:00,82.0,70.0,29.83,South,186,0.0,3.0,67,0.00,,,0.00,,2013-08-29 20:42:00,
2013-08-29 16:52:00,81.0,70.0,29.83,SSE,165,0.0,3.0,69,0.00,,,0.00,,2013-08-29 20:52:00,
2013-08-29 17:12:00,82.0,70.0,29.84,SSE,165,0.0,2.0,68,0.00,,,0.00,,2013-08-29 21:12:00,
2013-08-29 17:22:00,81.0,69.0,29.84,SSW,210,0.0,2.0,66,0.00,,,0.00,,2013-08-29 21:22:00,
2013-08-29 17:44:00,81.0,69.0,29.84,SE,140,0.0,3.0,66,0.00,,,0.00,,2013-08-29 21:44:00,
2013-08-29 17:54:00,81.0,69.0,29.84,SSE,165,0.0,3.0,67,0.00,,,0.00,,2013-08-29 21:54:00,
2013-08-29 18:14:00,80.0,68.0,29.84,SSE,165,0.0,2.0,68,0.00,,,0.00,,2013-08-29 22:14:00,
2013-08-29 18:24:00,80.0,69.0,29.83,SSE,165,0.0,2.0,69,0.00,,,0.00,,2013-08-29 22:24:00,
2013-08-29 18:43:00,80.0,69.0,29.84,SSE,165,0.0,1.0,70,0.00,,,0.00,,2013-08-29 22:43:00,
2013-08-29 18:53:00,79.0,69.0,29.84,SSE,165,0.0,0.0,71,0.00,,,0.00,,2013-08-29 22:53:00,
2013-08-29 19:13:00,79.0,69.0,29.84,SW,217,0.0,0.0,71,0.00,,,0.00,,2013-08-29 23:13:00,
2013-08-29 19:22:00,78.0,68.0,29.84,SW,217,0.0,0.0,72,0.00,,,0.00,,2013-08-29 23:22:00,
2013-08-29 19:53:00,77.0,70.0,29.85,SW,217,0.0,0.0,78,0.00,,,0.00,,2013-08-29 23:53:00,
2013-08-29 20:12:00,76.0,69.0,29.86,SW,217,0.0,0.0,80,0.00,,,0.00,,2013-08-30 00:12:00,
2013-08-29 20:22:00,76.0,70.0,29.87,SW,217,0.0,1.0,81,0.00,,,0.00,,2013-08-30 00:22:00,
2013-08-29 20:42:00,76.0,68.0,29.88,SW,217,0.0,2.0,77,0.00,,,0.00,,2013-08-30 00:42:00,
2013-08-29 20:52:00,76.0,68.0,29.88,SW,217,0.0,0.0,76,0.00,,,0.00,,2013-08-30 00:52:00,
2013-08-29 21:12:00,76.0,68.0,29.88,SW,217,0.0,1.0,77,0.00,,,0.00,,2013-08-30 01:12:00,
2013-08-29 21:22:00,75.0,67.0,29.89,SW,217,0.0,1.0,77,0.00,,,0.00,,2013-08-30 01:22:00,
2013-08-29 21:42:00,75.0,68.0,29.90,SW,217,0.0,0.0,78,0.00,,,0.00,,2013-08-30 01:42:00,
2013-08-29 21:52:00,75.0,68.0,29.90,SW,217,0.0,1.0,79,0.00,,,0.00,,2013-08-30 01:52:00,
2013-08-29 22:11:00,74.0,67.0,29.91,SW,217,0.0,0.0,80,0.00,,,0.00,,2013-08-30 02:11:00,
2013-08-29 22:22:00,73.0,67.0,29.91,SW,217,0.0,0.0,82,0.00,,,0.00,,2013-08-30 02:22:00,
2013-08-29 22:42:00,73.0,67.0,29.91,SW,217,0.0,0.0,82,0.00,,,0.00,,2013-08-30 02:42:00,
2013-08-29 22:52:00,73.0,68.0,29.91,SW,217,0.0,0.0,83,0.00,,,0.00,,2013-08-30 02:52:00,
2013-08-29 23:02:00,73.0,68.0,29.91,SW,217,0.0,0.0,83,0.00,,,0.00,,2013-08-30 03:02:00,
2013-08-29 23:12:00,73.0,68.0,29.91,SW,217,0.0,0.0,83,0.00,,,0.00,,2013-08-30 03:12:00,
2013-08-29 23:22:00,72.0,67.0,29.92,SW,217,0.0,0.0,84,0.00,,,0.00,,2013-08-30 03:22:00,
2013-08-29 23:55:00,72.0,67.0,29.92,SW,217,0.0,0.0,85,0.00,,,0.00,,2013-08-30 03:55:00,